Flag Weather past 2 weeks in Paderborn, North Rhine-Westphalia, Germany

Now
57 °F

Sunny.


Feels Like: 57 °F
Forecast: 51 / 62 °F
Wind: 2 mph from North

Location: Paderborn / Lippstadt

Current Time: Nov 1, 2014 at 7:58:47 AM

Latest Report: Nov 1, 2014 at 7:20 AM


Visibility: 10 mi

Pressure: 30.15 "Hg

Humidity: 63%

Dew point: 45 °F

Location of PaderbornLocation

Historic Weather in Paderborn — Graph

°F

Paderborn temperature yesterday

Maximum temperature yesterday: 66 °F (at 1:20 PM)
Minimum temperature yesterday: 52 °F (at 4:20 AM)
Average temperature yesterday: 60 °F

Past Weeks' High & Low Weather Summary

 TemperatureHumidityPressure
High72 °F (Oct 19, 1:20 PM)100% (Oct 17, 7:20 AM)30.30 "Hg (Oct 17, 7:20 AM)
Low32 °F (Oct 29, 4:20 AM)53% (Oct 18, 3:50 PM)29.47 "Hg (Oct 21, 5:20 PM)
Average53 °F79%30.08 "Hg
* Reported Oct 17 7:20 AM — Nov 1 6:50 AM, Paderborn, Weather by CustomWeather, © 2014

Note: Actual official high and low records may vary slightly from our data, if they occured in-between our weather recording intervals... More about our weather records

Advertising

Paderborn weather history for previous 24 hours

 ConditionsComfort  
Time TempWeatherWind HumidityBarometerVisibility
6:50 AM
Nov 1
55 °FClear.8 mph67%30.15 "Hg10 mi
6:20 AM57 °FClear.9 mph63%30.15 "Hg10 mi
5:50 AM57 °FClear.10 mph63%30.15 "Hg10 mi
5:20 AM55 °FClear.12 mph67%30.15 "Hg10 mi
4:50 AM57 °FClear.7 mph63%30.15 "Hg10 mi
4:20 AM57 °FClear.9 mph63%30.15 "Hg10 mi
12:20 AM59 °FClear.9 mph63%30.18 "Hg10 mi
11:50 PM
Oct 31
59 °FClear.9 mph63%30.18 "Hg10 mi
11:20 PM59 °FClear.9 mph63%30.18 "Hg10 mi
10:50 PM59 °FClear.10 mph63%30.18 "Hg10 mi
10:20 PM59 °FClear.10 mph68%30.18 "Hg10 mi
9:50 PM59 °FClear.10 mph68%30.21 "Hg10 mi
9:20 PM59 °FClear.10 mph68%30.21 "Hg10 mi
8:50 PM59 °FClear.8 mph68%30.21 "Hg10 mi
8:20 PM59 °FClear.9 mph68%30.21 "Hg10 mi
7:50 PM59 °FClear.12 mph68%30.21 "Hg10 mi
7:20 PM61 °FClear.9 mph68%30.21 "Hg10 mi
6:50 PM61 °FClear.9 mph68%30.21 "Hg10 mi
6:20 PM61 °FClear.9 mph68%30.21 "Hg10 mi
5:50 PM61 °FClear.7 mph68%30.21 "Hg10 mi
5:20 PM63 °FClear.8 mph64%30.18 "Hg10 mi
4:50 PM63 °FPassing clouds.5 mph64%30.18 "HgN/A
4:20 PM63 °FPassing clouds.3 mph64%30.18 "HgN/A
3:50 PM64 °FSunny.6 mph60%30.21 "Hg10 mi
3:20 PM64 °FSunny.7 mph60%30.21 "Hg10 mi
2:50 PM64 °FSunny.9 mph60%30.21 "Hg10 mi
2:20 PM66 °FSunny.7 mph56%30.21 "Hg10 mi
1:50 PM66 °FSunny.7 mph56%30.21 "Hg10 mi
1:20 PM66 °FSunny.6 mph56%30.21 "Hg10 mi
12:50 PM64 °FSunny.8 mph60%30.21 "Hg10 mi
12:20 PM64 °FSunny.9 mph64%30.24 "Hg10 mi
11:50 AM63 °FSunny.9 mph64%30.24 "Hg10 mi
11:20 AM61 °FSunny.10 mph68%30.24 "Hg10 mi
10:50 AM61 °FSunny.10 mph68%30.24 "Hg10 mi
10:20 AM59 °FSunny.9 mph72%30.24 "Hg10 mi
9:50 AM59 °FSunny.9 mph72%30.24 "Hg10 mi
9:20 AM59 °FSunny.10 mph72%30.24 "Hg10 mi
8:50 AM57 °FSunny.9 mph77%30.24 "Hg10 mi
8:20 AM57 °FSunny.10 mph77%30.24 "Hg10 mi
7:50 AM57 °FSunny.12 mph77%30.24 "Hg10 mi
7:20 AM57 °FSunny.10 mph77%30.21 "Hg10 mi
Weather by CustomWeather, © 2014

See weather overviewHow to use our weather pages